Weather History for KFAM - November, 2013

Change the Weather History Date:

Monday, November 4, 2013

  Actual Average Record
Temperature  
Mean Temperature 50 °F -  
Max Temperature 55 °F 57 °F 80 °F (2003)
Min Temperature 44 °F 40 °F 28 °F (1997)
Degree Days  
Heating Degree Days 16    
Moisture  
Dew Point 39 °F    
Average Humidity 67    
Maximum Humidity 87    
Minimum Humidity 58    
Precipitation  
Precipitation 0.00 in - - ()
Sea Level Pressure  
Sea Level Pressure 30.21 in    
Wind  
Wind Speed 10 mph (South)    
Max Wind Speed 22 mph    
Max Gust Speed 26 mph    
Visibility 10 miles    
Events      
Averages and records for this station are not official NWS values.
T = Trace of Precipitation, MM = Missing Value Source: NWS Daily Summary

Daily Weather History Graph

Daily Weather History Graph

Search for Another Location

Airport or City:

Trip Planner

Search our weather history database for the weather conditions in past years. The results will help you decide how hot, cold, wet, or windy it might be!

Date:

Astronomy

Nov. 04, 2013 Rise Set
Actual Time 6:30 AM CST 4:59 PM CST
Civil Twilight 6:03 AM CST 5:26 PM CST
Nautical Twilight 5:31 AM CST 5:58 PM CST
Astronomical Twilight 5:01 AM CST 6:28 PM CST
Moon 7:40 AM CST (11/4) 6:05 PM CST (11/4)
Length of Visible Light 11h 23m
Length of Day
10h 29m
New Moon, 2% of the Moon is Illuminated
Nov 4
New Moon
Nov 9
First Quarter
Nov 17
Full
Nov 25
Last Quarter
Dec 2
New

Hourly Weather History & Observations

Time (CST) Temp. Windchill Dew Point Humidity Pressure Visibility Wind Dir Wind Speed Gust Speed Precip Events Conditions
12:15 AM 46.4 °F 42.4 °F 33.8 °F 62% 30.18 in 10.0 mi SSE 8.1 mph - N/A   Clear
12:35 AM 46.4 °F 42.4 °F 33.8 °F 62% 30.19 in 10.0 mi SSE 8.1 mph - N/A   Clear
12:55 AM 46.4 °F 41.9 °F 33.8 °F 62% 30.18 in 10.0 mi SSE 9.2 mph - N/A   Clear
1:15 AM 46.4 °F 42.4 °F 33.8 °F 62% 30.18 in 10.0 mi SSE 8.1 mph - N/A   Clear
1:35 AM 46.4 °F 42.4 °F 33.8 °F 62% 30.17 in 10.0 mi SSE 8.1 mph - N/A   Clear
1:55 AM 46.4 °F 41.5 °F 33.8 °F 62% 30.16 in 10.0 mi SSE 10.4 mph - N/A   Clear
2:15 AM 46.4 °F 40.7 °F 33.8 °F 62% 30.15 in 10.0 mi SSE 12.7 mph 17.3 mph N/A   Clear
2:35 AM 46.4 °F 41.9 °F 33.8 °F 62% 30.15 in 10.0 mi SSE 9.2 mph - N/A   Clear
2:55 AM 46.4 °F 41.9 °F 33.8 °F 62% 30.15 in 10.0 mi SSE 9.2 mph - N/A   Clear
3:15 AM 46.4 °F 41.5 °F 33.8 °F 62% 30.16 in 10.0 mi South 10.4 mph - N/A   Clear
3:35 AM 46.4 °F 42.9 °F 33.8 °F 62% 30.15 in 10.0 mi SSE 6.9 mph - N/A   Clear
3:55 AM 46.4 °F 42.9 °F 33.8 °F 62% 30.16 in 10.0 mi SSE 6.9 mph - N/A   Clear
4:15 AM 46.4 °F 44.3 °F 33.8 °F 62% 30.17 in 10.0 mi South 4.6 mph - N/A   Clear
4:35 AM 46.4 °F 44.3 °F 33.8 °F 62% 30.17 in 10.0 mi SSE 4.6 mph - N/A   Clear
4:55 AM 46.4 °F 43.5 °F 33.8 °F 62% 30.17 in 10.0 mi South 5.8 mph - N/A   Clear
5:15 AM 46.4 °F 45.2 °F 33.8 °F 62% 30.18 in 10.0 mi SW 3.5 mph - N/A   Clear
5:35 AM 46.4 °F 44.3 °F 35.6 °F 66% 30.19 in 10.0 mi SSW 4.6 mph - N/A   Clear
5:55 AM 44.6 °F 40.7 °F 35.6 °F 71% 30.17 in 10.0 mi SE 6.9 mph - N/A   Clear
6:15 AM 46.4 °F 42.4 °F 33.8 °F 62% 30.15 in 10.0 mi SSE 8.1 mph - N/A   Clear
6:35 AM 46.4 °F - 33.8 °F 62% 30.18 in 10.0 mi Calm Calm - N/A   Clear
6:55 AM 46.4 °F - 33.8 °F 62% 30.20 in 10.0 mi Calm Calm - N/A   Clear
7:15 AM 46.4 °F 42.9 °F 35.6 °F 66% 30.20 in 10.0 mi South 6.9 mph - N/A   Clear
7:35 AM 46.4 °F 41.5 °F 35.6 °F 66% 30.21 in 10.0 mi South 10.4 mph - N/A   Clear
7:55 AM 46.4 °F 41.5 °F 35.6 °F 66% 30.21 in 10.0 mi South 10.4 mph - N/A   Clear
8:15 AM 46.4 °F 41.5 °F 35.6 °F 66% 30.20 in 10.0 mi SSE 10.4 mph - N/A   Clear
8:35 AM 48.2 °F - 35.6 °F 62% 30.21 in 10.0 mi South 11.5 mph - N/A   Clear
8:55 AM 48.2 °F - 35.6 °F 62% 30.21 in 10.0 mi South 9.2 mph - N/A   Clear
9:15 AM 48.2 °F - 37.4 °F 66% 30.21 in 10.0 mi South 9.2 mph - N/A   Clear
9:35 AM 48.2 °F - 37.4 °F 66% 30.22 in 10.0 mi South 13.8 mph - N/A   Clear
9:55 AM 50.0 °F - 37.4 °F 62% 30.22 in 10.0 mi South 11.5 mph 18.4 mph N/A   Clear
10:15 AM 50.0 °F - 37.4 °F 62% 30.22 in 10.0 mi South 11.5 mph - N/A   Clear
10:35 AM 51.8 °F - 37.4 °F 58% 30.20 in 10.0 mi South 17.3 mph 21.9 mph N/A   Clear
10:55 AM 51.8 °F - 39.2 °F 62% 30.20 in 10.0 mi South 15.0 mph 23.0 mph N/A   Clear
11:15 AM 51.8 °F - 39.2 °F 62% 30.20 in 10.0 mi South 12.7 mph 18.4 mph N/A   Clear
11:35 AM 53.6 °F - 39.2 °F 58% 30.20 in 10.0 mi South 16.1 mph 21.9 mph N/A   Clear
11:55 AM 53.6 °F - 41.0 °F 62% 30.20 in 10.0 mi SSW 13.8 mph - N/A   Clear
12:15 PM 53.6 °F - 39.2 °F 58% 30.20 in 10.0 mi SSW 21.9 mph 26.5 mph N/A   Clear
12:35 PM 53.6 °F - 41.0 °F 62% 30.19 in 10.0 mi SSW 18.4 mph 23.0 mph N/A   Clear
12:55 PM 53.6 °F - 42.8 °F 67% 30.19 in 10.0 mi SSW 12.7 mph - N/A   Clear
1:15 PM 53.6 °F - 42.8 °F 67% 30.20 in 10.0 mi South 12.7 mph 16.1 mph N/A   Clear
1:35 PM 55.4 °F - 42.8 °F 63% 30.20 in 10.0 mi SSW 13.8 mph 19.6 mph N/A   Clear
1:55 PM 55.4 °F - 42.8 °F 63% 30.19 in 10.0 mi South 12.7 mph 18.4 mph N/A   Mostly Cloudy
2:15 PM 55.4 °F - 42.8 °F 63% 30.18 in 10.0 mi South 15.0 mph 19.6 mph N/A   Mostly Cloudy
2:35 PM 55.4 °F - 42.8 °F 63% 30.18 in 10.0 mi South 16.1 mph 24.2 mph N/A   Overcast
2:55 PM 55.4 °F - 42.8 °F 63% 30.18 in 10.0 mi South 16.1 mph - N/A   Overcast
3:15 PM 55.4 °F - 42.8 °F 63% 30.19 in 10.0 mi South 11.5 mph - N/A   Overcast
3:35 PM 55.4 °F - 42.8 °F 63% 30.19 in 10.0 mi South 10.4 mph 17.3 mph N/A   Overcast
3:55 PM 55.4 °F - 41.0 °F 58% 30.19 in 10.0 mi South 13.8 mph 23.0 mph N/A   Mostly Cloudy
4:15 PM 55.4 °F - 42.8 °F 63% 30.19 in 10.0 mi South 15.0 mph 23.0 mph N/A   Mostly Cloudy
4:35 PM 55.4 °F - 42.8 °F 63% 30.19 in 10.0 mi South 21.9 mph 26.5 mph N/A   Partly Cloudy
4:55 PM 55.4 °F - 42.8 °F 63% 30.19 in 10.0 mi South 12.7 mph 19.6 mph N/A   Clear
5:15 PM 53.6 °F - 42.8 °F 67% 30.20 in 10.0 mi South 12.7 mph - N/A   Clear
5:35 PM 53.6 °F - 42.8 °F 67% 30.20 in 10.0 mi South 15.0 mph - N/A   Clear
5:55 PM 53.6 °F - 42.8 °F 67% 30.21 in 10.0 mi South 12.7 mph - N/A   Clear
6:15 PM 53.6 °F - 42.8 °F 67% 30.22 in 10.0 mi South 13.8 mph 20.7 mph N/A   Clear
6:35 PM 53.6 °F - 42.8 °F 67% 30.23 in 10.0 mi South 17.3 mph 20.7 mph N/A   Clear
6:55 PM 53.6 °F - 42.8 °F 67% 30.23 in 10.0 mi South 16.1 mph 23.0 mph N/A   Clear
7:15 PM 53.6 °F - 42.8 °F 67% 30.24 in 10.0 mi South 15.0 mph 19.6 mph N/A   Clear
7:35 PM 51.8 °F - 42.8 °F 71% 30.24 in 10.0 mi South 13.8 mph 18.4 mph N/A   Clear
7:55 PM 51.8 °F - 42.8 °F 71% 30.25 in 10.0 mi SSW 15.0 mph 20.7 mph N/A   Clear
8:15 PM 51.8 °F - 42.8 °F 71% 30.25 in 10.0 mi SSW 10.4 mph - N/A   Clear
8:35 PM 51.8 °F - 44.6 °F 76% 30.25 in 10.0 mi South 6.9 mph - N/A   Partly Cloudy
8:55 PM 51.8 °F - 44.6 °F 76% 30.26 in 10.0 mi South 9.2 mph - N/A   Mostly Cloudy
9:15 PM 50.0 °F - 44.6 °F 82% 30.26 in 10.0 mi South 8.1 mph - N/A   Mostly Cloudy
9:35 PM 50.0 °F - 44.6 °F 82% 30.26 in 10.0 mi South 5.8 mph - N/A   Overcast
9:55 PM 50.0 °F - 46.4 °F 87% 30.27 in 10.0 mi South 4.6 mph - N/A   Overcast
10:15 PM 50.0 °F - 46.4 °F 87% 30.27 in 10.0 mi South 8.1 mph - N/A   Overcast
10:35 PM 50.0 °F - 46.4 °F 87% 30.28 in 10.0 mi South 6.9 mph - N/A   Overcast
10:55 PM 50.0 °F - 46.4 °F 87% 30.28 in 10.0 mi SSE 8.1 mph - N/A   Overcast
11:15 PM 50.0 °F - 46.4 °F 87% 30.28 in 10.0 mi SSW 5.8 mph - N/A   Overcast
11:35 PM 50.0 °F - 46.4 °F 87% 30.28 in 10.0 mi South 5.8 mph - N/A   Overcast
11:55 PM 50.0 °F - 46.4 °F 87% 30.28 in 10.0 mi SSE 5.8 mph - N/A   Overcast